Lid_Strength_Index
5 4 2 2 3 5 6 6 6 6 6 7 8 7 7 7 7 7 6 6 6 7 8 8 8 9 10 10 10 9 10 11
5 4 4 4 5 6 6 7 7 7 8 9 9 8 8 7 7 7 7 7 7 8 8 8 9 10 10 10 10 10 10 10
5 5 5 5 6 6 6 7 8 8 8 9 9 8 8 8 8 8 8 8 8 8 9 9 10 10 11 11 11 11 11 11
5 6 6 6 7 7 7 8 8 7 9 10 9 9 9 10 10 10 9 8 8 9 9 9 10 10 12 12 12 12 12 11
5 6 6 7 7 7 7 7 7 7 9 9 9 9 10 11 10 10 10 9 8 9 9 10 11 11 12 12 11 12 12 12
5 6 6 7 7 7 7 7 7 8 8 8 9 9 10 10 10 10 10 9 10 10 10 11 11 11 12 12 12 12 12 13
5 4 6 7 7 7 7 6 6 7 8 8 9 10 10 10 10 11 11 11 10 11 11 11 11 11 12 12 12 12 12 12
6 6 7 8 7 7 6 6 6 7 8 8 9 9 9 10 10 11 11 11 11 12 12 12 12 12 11 11 12 11 12 12
7 6 7 7 6 6 5 5 7 7 8 8 8 9 9 9 9 10 10 11 12 12 12 12 11 11 11 11 11 11 11 12
7 7 6 5 5 6 6 6 7 7 8 8 9 8 9 9 10 10 10 11 11 11 11 12 12 12 11 12 11 12 12 12
7 7 6 7 7 8 7 7 8 9 9 9 10 10 10 11 11 11 10 10 10 11 11 12 11 11 11 12 12 12 12 13
6 6 6 6 6 7 7 8 9 9 9 9 10 10 10 10 11 11 11 10 10 11 11 11 11 11 12 12 12 12 14 14
7 6 7 7 7 8 8 8 8 9 9 10 10 10 10 11 11 10 10 10 10 10 10 11 11 11 12 13 12 13 14 15
7 7 7 7 7 7 7 7 8 8 8 9 9 10 10 10 10 10 10 10 10 10 11 11 10 11 12 12 13 13 15 15
7 7 7 6 6 7 7 8 8 8 8 9 9 10 10 10 10 10 10 10 11 11 11 10 11 11 12 12 13 14 15 15
7 7 6 6 6 7 7 7 8 8 8 9 9 10 9 9 9 10 10 11 11 11 12 13 13 12 12 13 13 14 15 15
7 6 4 5 6 7 7 7 7 7 8 9 9 9 9 9 9 10 11 12 12 12 13 13 14 12 11 11 12 14 14 14
6 5 5 5 5 6 7 7 7 8 9 8 9 9 10 10 10 11 11 12 12 13 14 14 14 12 10 11 12 13 14 15
5 5 5 5 6 6 7 7 8 9 9 9 9 9 10 10 10 10 11 11 13 13 14 14 13 12 11 11 13 17 19 19